Weather observations for the past three days for
Pierce County-Thun Field
Imperial (Metric)
Date Time (pdt) Wind (mph) Vis. (mi.) Weather Sky Cond. Temperature (ºF) Relative Humidity Wind Chill (°F) Heat Index (°F) Pressure Precipitation (in)
Air Dwpt 6 hour altimeter (in) sea level (mb) 1 hr 3 hr 6 hr
Max. Min.
20 18:55 Calm 10.00 Fair CLR 86 50 29% 84 30.04 0.0
20 18:35 Vrbl 5 9.00 Fair CLR 87.8 50 27% 85 30.04 0.0
20 18:15 Vrbl 3 9.00 Fair CLR 87.8 51.8 29% 85 30.04 0.0
20 17:55 Calm 9.00 Fair CLR 87.8 51.8 29% 85 30.04 0.0
20 17:35 NW 7 10.00 Fair CLR 87.8 50 27% 85 30.05 0.0
20 17:15 Calm 9.00 Fair CLR 89.6 48.2 24% 86 30.05 0.0
20 16:55 Vrbl 5 7.00 Fair CLR 87.8 50 27% 85 30.06 0.0
20 16:35 Calm 9.00 Fair CLR 89.6 51.8 27% 87 30.06 0.0
20 16:15 Calm 8.00 Fair CLR 89.6 51.8 27% 87 30.07 0.0
20 15:55 Vrbl 7 9.00 Fair CLR 87.8 50 27% 85 30.07 0.0
20 15:35 Vrbl 6 9.00 Fair CLR 87.8 50 27% 85 30.08 0.0
20 15:15 Vrbl 6 7.00 Fair CLR 87.8 51.8 29% 85 30.08 0.0
20 14:55 Vrbl 5 10.00 Fair CLR 87.8 51.8 29% 85 30.09 0.0
20 14:35 Vrbl 5 G 14 9.00 Fair CLR 87.8 53.6 31% 86 30.1 0.0
20 14:15 Vrbl 5 9.00 Fair CLR 86 55.4 35% 85 30.1 0.0
20 13:55 Vrbl 5 10.00 Fair CLR 86 55.4 35% 85 30.11 0.0
20 13:35 Vrbl 5 10.00 Fair CLR 84.2 55.4 37% 83 30.11 0.0
20 13:15 Calm 10.00 Fair CLR 86 55.4 35% 85 30.12 0.0
20 12:55 Calm 10.00 Fair CLR 84.2 55.4 37% 83 30.12 0.0
20 12:35 Calm 9.00 Fair CLR 84.2 55.4 37% 83 30.13 0.0
20 12:15 Calm 9.00 Fair CLR 82.4 53.6 37% 81 30.13 0.0
20 11:55 NE 5 10.00 Fair CLR 82.4 55.4 40% 82 30.14 0.0
20 11:35 Vrbl 3 10.00 Fair CLR 80.6 55.4 42% 81 30.14 0.0
20 11:15 Vrbl 5 10.00 Fair CLR 78.8 55.4 45% 79 30.15 0.0
20 10:55 Calm 10.00 Fair CLR 78.8 55.4 45% 79 30.15 0.0
20 10:35 Calm 10.00 Fair CLR 77 53.6 44% 78 30.16 0.0
20 10:15 Calm 10.00 Fair CLR 75.2 55.4 50% 78 30.16 0.0
20 09:55 Calm 10.00 Fair CLR 73.4 55.4 53% 30.16 0.0
20 09:35 Calm 10.00 Fair CLR 73.4 57.2 57% 30.16 0.0
20 09:15 Calm 10.00 Fair CLR 71.6 57.2 61% 30.16 0.0
20 08:55 Calm 10.00 Fair CLR 71.6 57.2 61% 30.17 0.0
20 08:35 Calm 10.00 Fair CLR 69.8 57.2 64% 30.17 0.0
20 08:15 Calm 10.00 Fair CLR 68 57.2 69% 30.17 0.0
20 07:55 Calm 10.00 Fair CLR 66.2 57.2 73% 30.17 0.0
20 07:35 Calm 9.00 Fair CLR 64.4 57.2 78% 30.17 0.0
20 07:15 Calm 10.00 Fair CLR 60.8 57.2 88% 30.16 0.0
20 06:55 Calm 10.00 Fair CLR 57.2 57.2 100% 30.16 0.0
20 06:35 Calm 9.00 Fair CLR 55.4 55.4 100% 30.16 0.0
20 06:15 Calm 9.00 Fair CLR 55.4 55.4 100% 30.16 0.0
20 05:55 Calm 10.00 Fair CLR 55.4 55.4 100% 30.16 0.0
20 05:35 Calm 10.00 Fair CLR 55.4 55.4 100% 30.16 0.0
20 05:15 Calm 10.00 Fair CLR 55.4 55.4 100% 30.16 0.0
20 04:55 Calm 10.00 Fair CLR 0 0 0% 0 0.0
20 04:35 Calm 10.00 Fair CLR 55.4 55.4 100% 30.16 0.0
20 04:15 Calm 10.00 Fair CLR 55.4 55.4 100% 30.16 0.0
20 03:55 Calm 10.00 Fair CLR 55.4 55.4 100% 30.16 0.0
20 03:35 Calm 10.00 Fair CLR 57.2 55.4 94% 30.16 0.0
20 03:15 Calm 10.00 Fair CLR 57.2 55.4 94% 30.16 0.0
20 02:55 Calm 10.00 Fair CLR 57.2 55.4 94% 30.16 0.0
20 02:35 Calm 10.00 Fair CLR 59 55.4 88% 30.16 0.0
20 02:15 Calm 10.00 Fair CLR 59 55.4 88% 30.16 0.0
20 01:55 Calm 10.00 Fair CLR 59 55.4 88% 30.16 0.0
20 01:35 Calm 10.00 Fair CLR 60.8 55.4 83% 30.17 0.0
20 01:15 Calm 10.00 Fair CLR 60.8 55.4 83% 30.17 0.0
20 00:55 Calm 10.00 Fair CLR 60.8 55.4 83% 30.17 0.0
20 00:35 Calm 10.00 Fair CLR 60.8 55.4 83% 30.17 0.0
20 00:15 Calm 10.00 Fair CLR 62.6 55.4 77% 30.16 0.0
19 23:55 Calm 10.00 Fair CLR 62.6 55.4 77% 30.16 0.0
19 23:35 Calm 10.00 Fair CLR 64.4 57.2 78% 30.16 0.0
19 23:15 Calm 10.00 Fair CLR 64.4 57.2 78% 30.16 0.0
19 22:55 Calm 10.00 Fair CLR 66.2 57.2 73% 30.16 0.0
19 22:35 Calm 10.00 Fair CLR 68 57.2 69% 30.15 0.0
19 22:15 Calm 10.00 Fair CLR 69.8 55.4 60% 30.15 0.0
19 21:55 Calm 10.00 Fair CLR 69.8 53.6 57% 30.15 0.0
19 21:35 Calm 10.00 Fair CLR 71.6 53.6 53% 30.15 0.0
19 21:15 Calm 10.00 Fair CLR 71.6 53.6 53% 30.14 0.0
19 20:55 Calm 9.00 Fair CLR 73.4 51.8 47% 30.14 0.0
19 20:35 Calm 10.00 Fair CLR 75.2 51.8 44% 78 30.13 0.0
19 20:15 Calm 9.00 Fair CLR 77 51.8 42% 78 30.14 0.0
19 19:55 Calm 10.00 Fair CLR 80.6 48.2 32% 80 30.14 0.0
19 19:35 Calm 10.00 Fair CLR 82.4 48.2 30% 81 30.14 0.0
19 19:15 Calm 9.00 Fair CLR 84.2 48.2 29% 82 30.14 0.0
19 18:55 Calm 10.00 Fair CLR 84.2 48.2 29% 82 30.14 0.0
19 18:35 Calm 10.00 Fair CLR 86 48.2 27% 83 30.14 0.0
19 18:15 Calm 9.00 Fair CLR 86 48.2 27% 83 30.14 0.0
19 17:55 Vrbl 5 9.00 Fair CLR 86 50 29% 84 30.14 0.0
19 17:35 Calm 10.00 Fair CLR 86 50 29% 84 30.15 0.0
19 17:15 Calm 10.00 Fair CLR 86 51.8 31% 84 30.15 0.0
19 16:55 Calm 10.00 Fair CLR 86 51.8 31% 84 30.16 0.0
19 16:35 Vrbl 3 10.00 Fair CLR 86 53.6 33% 84 30.16 0.0
19 16:15 Vrbl 5 10.00 Fair CLR 84.2 53.6 35% 83 30.16 0.0
19 15:55 Calm 9.00 Fair CLR 84.2 55.4 37% 83 30.17 0.0
19 15:35 Vrbl 6 9.00 Fair CLR 84.2 55.4 37% 83 30.17 0.0
19 15:15 Calm 10.00 Fair CLR 84.2 55.4 37% 83 30.17 0.0
19 14:55 Vrbl 3 10.00 Fair CLR 84.2 55.4 37% 83 30.18 0.0
19 14:35 Vrbl 5 10.00 Fair CLR 84.2 55.4 37% 83 30.18 0.0
19 14:15 Calm 10.00 Fair CLR 82.4 55.4 40% 82 30.18 0.0
19 13:55 W 5 9.00 Fair CLR 82.4 55.4 40% 82 30.19 0.0
19 13:35 Vrbl 5 10.00 Fair CLR 80.6 55.4 42% 81 30.19 0.0
19 13:15 Calm 10.00 Fair CLR 78.8 55.4 45% 79 30.19 0.0
19 12:55 Calm 9.00 Fair CLR 78.8 55.4 45% 79 30.2 0.0
19 12:35 Calm 10.00 Fair CLR 78.8 57.2 48% 80 30.2 0.0
19 12:15 Calm 9.00 Fair CLR 77 55.4 47% 79 30.2 0.0
19 11:55 Calm 10.00 Fair CLR 77 57.2 51% 79 30.2 0.0
19 11:35 Calm 10.00 Fair CLR 75.2 57.2 54% 78 30.21 0.0
19 11:15 Calm 10.00 Fair CLR 73.4 57.2 57% 30.21 0.0
19 10:55 Calm 10.00 Fair CLR 71.6 57.2 61% 30.21 0.0
19 10:35 Calm 10.00 Fair CLR 71.6 57.2 61% 30.21 0.0
19 10:15 Calm 10.00 Fair CLR 69.8 57.2 64% 30.21 0.0
19 09:55 Calm 10.00 Fair CLR 69.8 57.2 64% 30.21 0.0
19 09:35 Calm 10.00 Fair CLR 66.2 57.2 73% 30.22 0.0
19 09:15 Calm 10.00 Fair CLR 66.2 57.2 73% 30.22 0.0
19 08:55 Calm 10.00 A Few Clouds FEW015 66.2 57.2 73% 30.22 0.0
19 08:15 Calm 10.00 A Few Clouds FEW012 62.6 57.2 83% 30.21 0.0
19 07:55 Calm 10.00 A Few Clouds FEW012 62.6 57.2 83% 30.2 0.0
19 07:35 Calm 9.00 Fair CLR 60.8 57.2 88% 30.2 0.0
19 07:15 Calm 10.00 Fair CLR 59 57.2 94% 30.2 0.0
19 06:55 Calm 10.00 Fair CLR 57.2 57.2 100% 30.2 0.0
19 06:35 Calm 10.00 Fair CLR 55.4 55.4 100% 30.19 0.0
19 06:15 Calm 10.00 Fair CLR 55.4 55.4 100% 30.19 0.0
19 05:55 Calm 10.00 Fair CLR 55.4 55.4 100% 30.19 0.0
19 05:35 Calm 9.00 Fair CLR 55.4 55.4 100% 30.18 0.0
19 05:15 Calm 10.00 A Few Clouds FEW048 FEW055 55.4 55.4 100% 30.17 0.0
19 04:55 Calm 10.00 Mostly Cloudy BKN047 BKN055 55.4 55.4 100% 30.17 0.0
19 04:35 Calm 10.00 Mostly Cloudy FEW040 BKN047 BKN055 55.4 55.4 100% 30.17 0.0
19 04:15 Calm 10.00 Mostly Cloudy FEW039 BKN047 BKN055 55.4 55.4 100% 30.16 0.0
19 03:55 Calm 10.00 Partly Cloudy FEW031 SCT042 SCT050 55.4 55.4 100% 30.16 0.0
19 03:35 Calm 10.00 Mostly Cloudy FEW034 SCT042 BKN048 57.2 57.2 100% 30.16 0.0
19 03:15 Calm 10.00 Mostly Cloudy FEW035 SCT044 BKN049 59 57.2 94% 30.16 0.0
19 02:55 Calm 10.00 Mostly Cloudy FEW036 FEW043 BKN050 59 57.2 94% 30.15 0.0
19 02:35 Calm 10.00 Partly Cloudy FEW038 FEW044 SCT050 59 57.2 94% 30.15 0.0
19 02:15 Calm 10.00 Mostly Cloudy FEW039 SCT047 BKN055 59 57.2 94% 30.15 0.0
19 01:55 Calm 10.00 Partly Cloudy FEW040 SCT050 59 57.2 94% 30.15 0.0
19 01:35 Calm 9.00 A Few Clouds FEW049 59 57.2 94% 30.15 0.0
19 01:15 Calm 10.00 A Few Clouds FEW050 FEW055 60.8 57.2 88% 30.15 0.0
19 00:55 Calm 10.00 A Few Clouds FEW050 59 59 100% 30.15 0.0
19 00:35 Calm 10.00 A Few Clouds FEW050 FEW060 60.8 59 94% 30.14 0.0
19 00:15 Calm 10.00 A Few Clouds FEW049 60.8 57.2 88% 30.14 0.0
18 23:55 Calm 10.00 A Few Clouds FEW048 60.8 59 94% 30.13 0.0
18 23:35 Calm 10.00 Fair CLR 62.6 59 88% 30.13 0.0
18 23:15 Calm 10.00 Partly Cloudy SCT065 62.6 59 88% 30.13 0.0
18 22:55 Calm 10.00 A Few Clouds FEW065 62.6 59 88% 30.12 0.0
18 22:35 Calm 10.00 Fair CLR 64.4 59 83% 30.12 0.0
18 22:15 Calm 10.00 Fair CLR 66.2 59 78% 30.12 0.0
18 21:55 Calm 10.00 Fair CLR 66.2 59 78% 30.12 0.0
18 21:35 Calm 10.00 Fair CLR 68 57.2 69% 30.12 0.0
18 21:15 Calm 9.00 Fair CLR 68 59 73% 30.1 0.0
18 20:55 Calm 10.00 Fair CLR 71.6 59 65% 30.1 0.0
18 20:35 Calm 10.00 Fair CLR 73.4 57.2 57% 30.09 0.0
18 20:15 W 5 10.00 Fair CLR 75.2 57.2 54% 78 30.08 0.0
18 19:55 Calm 10.00 Fair CLR 77 57.2 51% 79 30.08 0.0
18 19:35 Vrbl 3 10.00 Fair CLR 78.8 57.2 48% 80 30.07 0.0
18 19:15 NW 5 10.00 Fair CLR 80.6 57.2 45% 81 30.07 0.0
18 18:55 Calm 9.00 Fair CLR 82.4 57.2 42% 82 30.06 0.0
18 18:35 Calm 7.00 Fair CLR 84.2 55.4 37% 83 30.06 0.0
18 18:15 Calm 8.00 Fair CLR 84.2 55.4 37% 83 30.05 0.0
18 17:55 Calm 10.00 Fair CLR 84.2 55.4 37% 83 30.05 0.0
18 17:35 Vrbl 5 10.00 Fair CLR 86 55.4 35% 85 30.05 0.0
18 17:15 Vrbl 3 9.00 Fair CLR 86 55.4 35% 85 30.05 0.0
18 16:35 Calm 10.00 Fair CLR 86 55.4 35% 85 30.05 0.0
18 16:15 Calm 9.00 Fair CLR 86 55.4 35% 85 30.06 0.0
18 15:55 Calm 9.00 Fair CLR 86 55.4 35% 85 30.06 0.0
18 15:35 Calm 9.00 Fair CLR 84.2 55.4 37% 83 30.06 0.0
18 15:15 Calm 9.00 Fair CLR 84.2 55.4 37% 83 30.07 0.0
18 14:55 Calm 9.00 Fair CLR 84.2 55.4 37% 83 30.07 0.0
18 14:35 Calm 9.00 Fair CLR 84.2 57.2 40% 83 30.07 0.0
18 14:15 Calm 10.00 Fair CLR 82.4 55.4 40% 82 30.08 0.0
18 13:55 Calm 9.00 Fair CLR 82.4 57.2 42% 82 30.08 0.0
18 13:35 Calm 9.00 Fair CLR 80.6 57.2 45% 81 30.08 0.0
18 13:15 SW 6 9.00 Fair CLR 78.8 57.2 48% 80 30.08 0.0
18 12:55 Calm 0.00 Fair CLR 78.8 57.2 48% 80 30.09 0.0
18 12:35 Calm 9.00 Fair CLR 78.8 57.2 48% 80 30.09 0.0
18 12:15 Vrbl 5 10.00 Fair CLR 77 59 54% 79 30.09 0.0
18 11:55 Vrbl 5 10.00 Fair CLR 75.2 57.2 54% 78 30.09 0.0
18 11:35 Calm 10.00 Fair CLR 75.2 57.2 54% 78 30.09 0.0
18 11:15 Calm 10.00 Fair CLR 73.4 57.2 57% 30.1 0.0
18 10:55 Calm 10.00 Fair CLR 71.6 57.2 61% 30.1 0.0
18 10:35 Calm 9.00 Fair CLR 71.6 55.4 57% 30.1 0.0
18 10:15 Calm 10.00 Fair CLR 69.8 55.4 60% 30.1 0.0
18 09:55 Calm 9.00 Fair CLR 69.8 55.4 60% 30.1 0.0
18 09:35 Calm 10.00 Fair CLR 68 55.4 64% 30.11 0.0
18 09:15 Calm 10.00 Fair CLR 66.2 55.4 68% 30.11 0.0
18 08:55 Calm 10.00 Fair CLR 64.4 55.4 73% 30.11 0.0
18 08:35 Calm 9.00 Fair CLR 64.4 55.4 73% 30.11 0.0
18 08:15 Calm 10.00 Fair CLR 62.6 55.4 77% 30.1 0.0
18 07:55 Calm 9.00 Fair CLR 60.8 55.4 83% 30.1 0.0
18 07:35 Calm 10.00 Fair CLR 60.8 55.4 83% 30.1 0.0
18 07:15 Calm 10.00 Fair CLR 60.8 55.4 83% 30.1 0.0
18 06:55 Calm 10.00 Fair CLR 57.2 55.4 94% 30.1 0.0
18 06:35 Calm 10.00 Fair CLR 55.4 55.4 100% 30.1 0.0
18 06:15 Calm 10.00 Fair CLR 55.4 55.4 100% 30.09 0.0
18 05:55 Calm 10.00 Fair CLR 55.4 55.4 100% 30.09 0.0
18 05:35 Calm 10.00 Fair CLR 55.4 55.4 100% 30.09 0.0
18 05:15 Calm 10.00 Partly Cloudy FEW047 SCT055 57.2 57.2 100% 30.09 0.0
18 04:55 Calm 10.00 Mostly Cloudy BKN047 BKN055 55.4 55.4 100% 30.08 0.0
18 04:35 Calm 10.00 A Few Clouds FEW045 55.4 55.4 100% 30.08 0.0
18 04:15 Calm 10.00 A Few Clouds FEW045 FEW050 55.4 55.4 100% 30.08 0.0
18 03:55 Calm 10.00 A Few Clouds FEW045 FEW050 57.2 55.4 94% 30.08 0.0
18 03:35 Calm 10.00 A Few Clouds FEW044 FEW050 57.2 55.4 94% 30.07 0.0
18 03:15 Calm 10.00 A Few Clouds FEW046 57.2 55.4 94% 30.07 0.0
18 02:55 Calm 10.00 Partly Cloudy SCT046 SCT055 59 57.2 94% 30.07 0.0
18 02:35 Calm 10.00 A Few Clouds FEW046 59 57.2 94% 30.07 0.0
18 02:15 Calm 10.00 Fair CLR 59 57.2 94% 30.07 0.0
18 01:55 Calm 10.00 Fair CLR 59 57.2 94% 30.07 0.0
18 01:35 Calm 10.00 Fair CLR 60.8 59 94% 30.07 0.0
18 01:15 Calm 10.00 A Few Clouds FEW049 60.8 59 94% 30.07 0.0
18 00:55 Calm 10.00 A Few Clouds FEW049 59 59 100% 30.07 0.0
18 00:35 Calm 10.00 A Few Clouds FEW049 FEW095 59 59 100% 30.07 0.0
18 00:15 Calm 10.00 A Few Clouds FEW060 FEW095 60.8 59 94% 30.07 0.0
17 23:55 Calm 10.00 A Few Clouds FEW050 60.8 59 94% 30.07 0.0
17 23:35 Calm 10.00 Fair CLR 60.8 59 94% 30.07 0.0
17 23:15 Calm 10.00 Fair CLR 60.8 59 94% 30.06 0.0
17 22:55 Calm 10.00 Fair CLR 62.6 59 88% 30.06 0.0
17 22:35 Calm 10.00 Fair CLR 64.4 59 83% 30.05 0.0
17 22:15 Calm 10.00 Fair CLR 64.4 60.8 88% 30.05 0.0
17 21:55 Calm 10.00 Fair CLR 64.4 60.8 88% 30.05 0.0
17 21:35 Calm 10.00 Fair CLR 66.2 60.8 83% 30.04 0.0
17 21:15 Calm 10.00 Fair CLR 68 59 73% 30.04 0.0
17 20:55 Calm 10.00 Fair CLR 69.8 59 69% 30.03 0.0
17 20:35 Calm 10.00 Fair CLR 73.4 60.8 65% 30.02 0.0
17 20:15 Calm 9.00 Fair CLR 75.2 60.8 61% 77 30.01 0.0
17 19:55 Calm 10.00 Fair CLR 77 60.8 57% 79 30 0.0
17 19:35 Calm 10.00 Fair CLR 78.8 60.8 54% 80 29.99 0.0
17 19:15 Vrbl 3 9.00 Fair CLR 80.6 60.8 51% 81 29.99 0.0
Date Time (pdt) Wind (mph) Vis. (mi.) Weather Sky Cond. Air Dwpt Max. Min. Relative Humidity Wind Chill (°F) Heat Index (°F) altimeter (in) sea level (mb) 1 hr 3 hr 6 hr
6 hour
Temperature (ºF) Pressure Precipitation (in)